FW2825 Weather Reports


Display with metric or nautical units.
time (UTC)temp
F
wind
direction
speed
MPH
gust
MPH
rain 1hr
in
rain 24hr
in
rain mn
in
humidity
%
barometer
mb
20260510181618 69 360 0.0 6.0 0.00 0.11 0.00 70 1011.3
20260510180005 68 360 0.0 0.0 0.00 0.11 0.00 71 1011.2
20260510174609 68 360 0.0 0.0 0.00 0.14 0.00 73 1011.4
20260510173115 68 360 0.0 0.0 0.00 0.14 0.00 72 1011.2
20260510171620 68 360 0.0 0.0 0.00 0.14 0.00 68 1011.3
20260510170019 69 360 0.0 0.0 0.00 0.14 0.00 71 1011.5
20260510164615 68 360 0.0 0.0 0.00 0.17 0.00 75 1011.8
20260510163109 67 360 0.0 0.0 0.00 0.17 0.00 73 1012.1
20260510161618 67 360 0.0 0.0 0.00 0.17 0.00 75 1012.1
20260510160124 66 360 0.0 0.0 0.00 0.17 0.00 78 1012.2
20260510153114 63 360 0.0 0.0 0.00 0.18 0.00 83 1012.6
20260510151613 61 360 0.0 0.0 0.00 0.18 0.00 87 1012.7
20260510150109 59 360 0.0 0.0 0.00 0.18 0.00 91 1012.7
20260510144618 58 360 0.0 0.0 0.00 0.20 0.00 93 1012.7
20260510143003 56 360 0.0 0.0 0.00 0.20 0.00 95 1012.8
20260510141611 57 360 0.0 0.0 0.00 0.20 0.00 97 1012.8
20260510140113 55 360 0.0 0.0 0.00 0.20 0.00 98 1012.9
20260510134620 54 360 0.0 0.0 0.00 0.22 0.00 97 1012.9
20260510133103 54 360 0.0 0.0 0.00 0.22 0.00 98 1013.0
20260510131610 53 360 0.0 0.0 0.00 0.22 0.00 98 1013.0
20260510130116 53 360 0.0 0.0 0.00 0.22 0.00 98 1013.0
20260510124503 53 360 0.0 0.0 0.00 0.25 0.00 98 1012.8
20260510123105 53 360 0.0 0.0 0.00 0.25 0.00 98 1012.8
20260510121616 52 360 0.0 0.0 0.00 0.25 0.00 98 1012.7
20260510120117 52 360 0.0 0.0 0.00 0.25 0.00 98 1012.7
20260510114608 52 360 0.0 0.0 0.00 0.25 0.00 97 1012.8
20260510113108 52 360 0.0 0.0 0.00 0.25 0.00 98 1012.9
20260510111611 51 360 0.0 0.0 0.00 0.25 0.00 98 1012.6
20260510110122 51 360 0.0 0.0 0.00 0.25 0.00 98 1012.6
20260510104619 51 360 0.0 0.0 0.00 0.31 0.00 98 1012.6
20260510103115 51 360 0.0 0.0 0.00 0.31 0.00 98 1012.2
20260510101615 50 360 0.0 0.0 0.00 0.31 0.00 98 1012.0
20260510094609 50 360 0.0 0.0 0.00 0.36 0.00 98 1011.2
20260510093115 50 360 0.0 0.0 0.00 0.36 0.00 97 1011.2
20260510091503 49 360 0.0 0.0 0.00 0.36 0.00 97 1011.5
20260510090114 50 360 0.0 0.0 0.00 0.36 0.00 97 1011.4
20260510084610 50 360 0.0 0.0 0.00 0.36 0.00 97 1011.7
20260510083120 50 360 0.0 0.0 0.00 0.36 0.00 97 1011.9
20260510081603 50 360 0.0 0.0 0.00 0.36 0.00 97 1011.8
20260510080119 50 360 0.0 0.0 0.00 0.36 0.00 97 1011.9
20260510074626 50 360 0.0 0.0 0.00 0.36 0.00 97 1011.9
20260510073124 50 360 0.0 0.0 0.00 0.36 0.00 97 1011.9
20260510071607 50 360 0.0 0.0 0.00 0.36 0.00 97 1011.6
20260510070115 50 360 0.0 0.0 0.00 0.36 0.00 97 1011.5
20260510064615 50 360 0.0 0.0 0.00 0.36 0.00 97 1011.5
20260510063104 50 360 0.0 0.0 0.00 0.36 0.00 97 1011.6
20260510061609 50 360 0.0 0.0 0.00 0.36 0.00 98 1011.4
20260510060115 50 360 0.0 0.0 0.00 0.36 0.00 97 1011.5
20260510054620 49 360 0.0 0.0 0.00 0.36 0.00 97 1011.2
20260510053106 48 360 0.0 0.0 0.00 0.36 0.00 97 1011.7
20260510051609 48 360 0.0 0.0 0.00 0.36 0.00 97 1011.7
20260510050116 48 360 0.0 0.0 0.00 0.36 0.00 97 1011.3
20260510044618 49 360 0.0 0.0 0.00 0.36 0.00 97 1011.5
20260510043107 49 360 0.0 0.0 0.00 0.36 0.00 97 1011.5
20260510041613 49 360 0.0 0.0 0.00 0.36 0.00 97 1011.5
20260510040116 49 360 0.0 0.0 0.00 0.36 0.00 97 1011.7
20260510034607 50 360 0.0 0.0 0.00 0.36 0.36 97 1011.5
20260510033109 49 360 0.0 0.0 0.00 0.36 0.36 97 1011.6
20260510031616 49 360 0.0 0.0 0.00 0.36 0.36 97 1011.8
20260510030004 49 360 0.0 0.0 0.00 0.36 0.36 97 1011.7
20260510024605 49 360 0.0 0.0 0.00 0.36 0.36 97 1011.8
20260510023109 49 360 0.0 0.0 0.00 0.36 0.36 97 1011.5
20260510021617 49 360 0.0 0.0 0.00 0.36 0.36 97 1011.6
20260510020006 49 360 0.0 0.0 0.00 0.36 0.36 97 1012.1
20260510014609 49 360 0.0 0.0 0.00 0.36 0.36 97 1012.3
20260510013112 49 360 0.0 0.0 0.00 0.36 0.36 97 1012.3
20260510011620 49 360 0.0 0.0 0.00 0.36 0.36 97 1012.0
20260510010113 49 360 0.0 0.0 0.00 0.36 0.36 96 1011.7
20260510004614 49 360 0.0 0.0 0.00 0.36 0.36 96 1011.4
20260510003117 49 360 0.0 0.0 0.00 0.36 0.36 96 1011.3
20260510001604 49 360 0.0 0.0 0.00 0.36 0.36 96 1011.4
20260510000132 49 360 0.0 0.0 0.00 0.36 0.36 96 1011.3
20260509234617 49 360 0.0 0.0 0.01 0.36 0.36 96 1011.4
20260509233104 49 360 0.0 0.0 0.01 0.36 0.36 96 1011.6
20260509231612 49 360 0.0 0.0 0.01 0.36 0.36 96 1011.2
20260509230118 49 360 0.0 0.0 0.01 0.36 0.36 96 1011.3
20260509224607 49 360 0.0 0.0 0.00 0.35 0.35 96 1011.2
20260509223110 49 360 0.0 0.0 0.00 0.35 0.35 96 1011.1
20260509221620 49 360 0.0 0.0 0.01 0.35 0.35 96 1011.3
20260509220122 49 360 0.0 0.0 0.02 0.35 0.35 96 1011.4
20260509214608 49 360 0.0 0.0 0.03 0.35 0.35 95 1011.3
20260509213113 49 360 0.0 0.0 0.05 0.35 0.35 95 1011.4
20260509211615 49 360 0.0 0.0 0.05 0.34 0.34 95 1011.6
20260509210105 48 360 0.0 0.0 0.05 0.33 0.33 95 1011.8
20260509204612 48 360 0.0 0.0 0.05 0.32 0.32 95 1012.0
20260509203118 48 360 0.0 0.0 0.04 0.30 0.30 95 1012.1
20260509201605 48 360 0.0 0.0 0.03 0.28 0.28 95 1012.3
20260509200110 48 360 0.0 0.0 0.03 0.28 0.28 94 1012.4
20260509194614 49 360 0.0 0.0 0.02 0.27 0.27 94 1012.6
20260509193004 49 360 0.0 0.0 0.01 0.26 0.26 94 1012.4
20260509191616 48 360 0.0 0.0 0.01 0.26 0.26 94 1012.4
20260509190118 48 360 0.0 0.0 0.00 0.25 0.25 94 1012.6
20260509184614 48 360 0.0 0.0 0.01 0.25 0.25 94 1012.5
20260509183105 48 360 0.0 0.0 0.01 0.25 0.25 94 1012.5